Home > Time Zones > World Clock > Weather > Mali > Bamako > Past weeks

Flag for Mali Weather past 2 weeks in Bamako, Mali

Now
75 °F

Sunny.


Feels Like: 73 °F
Forecast: 72 / 90 °F
Wind: 6 mph from East

Location: Bamako / Senou

Current Time: Sep 16, 2014 at 8:17:58 AM

Latest Report: Sep 16, 2014 at 8:00 AM


Visibility: 10 mi

Pressure: 30.01 "Hg

Humidity: 100%

Dew point: 75 °F

Location of BamakoLocation

Historic Weather in Bamako — Graph

°F

Bamako temperature yesterday

Maximum temperature yesterday: 84 °F (at 3:30 PM)
Minimum temperature yesterday: 70 °F (at 7:30 AM)
Average temperature yesterday: 76 °F

Past Weeks' High & Low Weather Summary

 TemperatureHumidityPressure
High93 °F (Sep 5, 2:30 PM)100% (Sep 1, 7:00 AM)30.09 "Hg (Sep 1, 7:00 AM)
Low68 °F (Sep 6, 6:30 PM)44% (Sep 5, 2:30 PM)29.86 "Hg (Sep 2, 4:30 PM)
Average78 °F86%29.96 "Hg
* Reported Sep 1 7:00 AM — Sep 16 7:00 AM, Bamako, Weather by CustomWeather, © 2014

Note: Actual official high and low records may vary slightly from our data, if they occured in-between our weather recording intervals... More about our weather records

Advertising

Bamako weather history for previous 24 hours

 ConditionsComfort  
Time TempWeatherWind HumidityBarometerVisibility
7:00 AM
Sep 16
72 °FClear.3 mph100%30.01 "Hg4 mi
6:30 AM72 °FClear.3 mph100%30.01 "Hg4 mi
6:00 AM72 °FClear.1 mph100%29.98 "Hg10 mi
5:30 AM72 °FClear.3 mph100%29.98 "Hg10 mi
5:00 AM72 °FClear.2 mph100%29.98 "Hg10 mi
4:30 AM72 °FClear.1 mph100%29.95 "Hg10 mi
4:00 AM72 °FClear.2 mph100%29.95 "Hg10 mi
3:30 AM72 °FClear.No wind100%29.95 "Hg10 mi
2:30 AM73 °FClear.2 mph100%29.95 "Hg10 mi
2:00 AM73 °FClear.2 mph100%29.95 "Hg10 mi
1:30 AM73 °FPassing clouds.5 mph100%29.98 "HgN/A
1:00 AM73 °FPassing clouds.6 mph100%29.98 "HgN/A
12:30 AM73 °FPassing clouds.2 mph100%29.98 "HgN/A
12:00 AM73 °FPassing clouds.2 mph100%29.98 "HgN/A
11:30 PM
Sep 15
73 °FPassing clouds.1 mph100%29.98 "HgN/A
11:00 PM75 °FPassing clouds.2 mph100%29.98 "HgN/A
10:30 PM75 °FThunderstorms. Passing clouds.No wind100%29.98 "HgN/A
10:00 PM75 °FThunderstorms. Passing clouds.No wind100%29.98 "HgN/A
9:30 PM75 °FThunderstorms. Passing clouds.1 mph100%29.98 "HgN/A
9:00 PM75 °FThunderstorms. Passing clouds.2 mph100%29.98 "HgN/A
8:30 PM77 °FPassing clouds.1 mph94%29.98 "HgN/A
8:00 PM79 °FPartly cloudy.2 mph89%29.95 "HgN/A
7:30 PM79 °FPassing clouds.2 mph94%29.95 "HgN/A
7:00 PM79 °FPassing clouds.No wind94%29.95 "HgN/A
6:30 PM81 °FPartly sunny.No wind84%29.95 "HgN/A
6:00 PM81 °FPartly sunny.No wind84%29.95 "HgN/A
5:30 PM82 °FPartly sunny.5 mph70%29.95 "HgN/A
5:00 PM82 °FPartly sunny.8 mph70%29.92 "HgN/A
4:30 PM82 °FBroken clouds.6 mph74%29.92 "HgN/A
4:00 PM84 °FBroken clouds.5 mph70%29.92 "HgN/A
3:30 PM84 °FBroken clouds.2 mph70%29.92 "HgN/A
3:00 PM82 °FScattered clouds.2 mph70%29.95 "HgN/A
2:30 PM82 °FBroken clouds.2 mph79%29.95 "HgN/A
2:00 PM81 °FBroken clouds.3 mph79%29.98 "HgN/A
1:30 PM81 °FBroken clouds.5 mph79%29.98 "HgN/A
1:00 PM81 °FBroken clouds.3 mph74%30.01 "HgN/A
12:30 PM79 °FBroken clouds.6 mph84%30.01 "HgN/A
12:00 PM77 °FBroken clouds.10 mph83%30.01 "HgN/A
11:30 AM77 °FBroken clouds.7 mph89%30.01 "HgN/A
11:00 AM75 °FBroken clouds.6 mph94%30.04 "HgN/A
10:30 AM75 °FBroken clouds.5 mph94%30.04 "HgN/A
10:00 AM73 °FBroken clouds.5 mph100%30.04 "HgN/A
9:30 AM72 °FBroken clouds.5 mph100%30.04 "HgN/A
9:00 AM72 °FThunderstorms. Broken clouds.6 mph100%30.04 "HgN/A
8:30 AM72 °FThunderstorms. Broken clouds.8 mph100%30.04 "Hg5 mi
8:00 AM70 °FThunderstorms. More clouds than sun.8 mph100%30.04 "Hg4 mi
Weather by CustomWeather, © 2014

See weather overviewHow to use our weather pages